Ouarzazate, Morocco

5:34 PM WEST on April 26, 2017 (GMT +0100)
Ouarzazate

Weather History for GMMZ - December, 2012

Change the Weather History Date:

Tuesday, December 11, 2012

  Actual Average Record
Temperature  
Mean Temperature 48 °F -  
Max Temperature 60 °F 62 °F - ()
Min Temperature 37 °F 36 °F - ()
Degree Days  
Heating Degree Days 16    
Moisture  
Dew Point 23 °F    
Average Humidity 34    
Maximum Humidity 56    
Minimum Humidity 15    
Precipitation  
Precipitation 0.00 in 0.01 in - ()
Sea Level Pressure  
Sea Level Pressure 30.11 in    
Wind  
Wind Speed 0 mph ()    
Max Wind Speed 2 mph    
Max Gust Speed -    
Visibility 12.0 miles    
Events      
T = Trace of Precipitation, MM = Missing Value Source: Averaged Metar Reports

Daily Weather History Graph

Daily Weather History Graph

Search for Another Location

Airport or City:

Trip Planner

Search our weather history database for the weather conditions in past years. The results will help you decide how hot, cold, wet, or windy it might be!

Date:

Astronomy

Dec. 11, 2012 Rise Set
Actual Time 7:15 AM WET 5:26 PM WET
Civil Twilight 6:49 AM WET 5:52 PM WET
Nautical Twilight 6:18 AM WET 6:23 PM WET
Astronomical Twilight 5:49 AM WET 6:52 PM WET
Moon 4:58 AM WET (12/11) 3:50 PM WET (12/11)
Length of Visible Light 11h 03m
Length of Day
10h 10m
Waning Crescent, 5% of the Moon is Illuminated
Dec 11
Waning Crescent
Dec 13
New
Dec 20
First Quarter
Dec 28
Full
Jan 5
Last Quarter

Hourly Weather History & Observations

Time (WET) Temp. Dew Point Humidity Pressure Visibility Wind Dir Wind Speed Gust Speed Precip Events Conditions
12:00 AM 49 °F 24 °F 25%  in 12 mi Calm Calm - -   Clear
12:00 AM 50.0 °F 24.8 °F 37% 30.15 in - Calm Calm - N/A   Clear
1:00 AM 42.8 °F 19.4 °F 39% 30.15 in - Calm Calm - N/A   Clear
2:00 AM 46.4 °F 21.2 °F 37% 30.15 in - Calm Calm - N/A   Clear
3:00 AM 42 °F 20 °F 28%  in 12 mi WSW 1.2 mph - -   Clear
3:00 AM 42.8 °F 19.4 °F 39% 30.15 in - Variable 1.2 mph - N/A   Clear
4:00 AM 41.0 °F 19.4 °F 42% 30.15 in - Variable 2.3 mph - N/A   Clear
5:00 AM 41.0 °F 23.0 °F 49% 30.12 in - Variable 1.2 mph - N/A   Clear
6:00 AM 40 °F 22 °F 34%  in 12 mi Calm Calm - -   Clear
6:00 AM 39.2 °F 21.2 °F 49% 30.12 in - Calm Calm - N/A   Clear
7:00 AM 41.0 °F 23.0 °F 49% 30.15 in - Calm Calm - N/A   Clear
8:00 AM 37.4 °F 23.0 °F 56% 30.15 in - Variable 2.3 mph - N/A   Clear
9:00 AM 44 °F 23 °F 30%  in 12 mi Calm Calm - -   Scattered Clouds
9:00 AM 42.8 °F 23.0 °F 46% 30.15 in - Calm Calm - N/A   Clear
10:00 AM 46.4 °F 23.0 °F 40% 30.15 in - Calm Calm - N/A   Clear
11:00 AM 51.8 °F 23.0 °F 33% 30.15 in - Variable 1.2 mph - N/A   Clear
12:00 PM 54 °F 24 °F 19%  in 12 mi Calm Calm - -   Scattered Clouds
12:00 PM 53.6 °F 24.8 °F 33% 30.12 in - Calm Calm - N/A   Clear
1:00 PM 55.4 °F 23.0 °F 29% 30.12 in - Calm Calm - N/A   Clear
2:00 PM 59.0 °F 24.8 °F 27% 30.06 in - Calm Calm - N/A   Clear
3:00 PM 60 °F 24 °F 15%  in 12 mi Calm Calm - -   Scattered Clouds
3:00 PM 60.8 °F 24.8 °F 25% 30.06 in - Calm Calm - N/A   Clear
4:00 PM 59.0 °F 24.8 °F 27% 30.04 in - Variable 2.3 mph - N/A   Clear
5:00 PM 59.0 °F 24.8 °F 27% 30.04 in - Variable 2.3 mph - N/A   Clear
6:00 PM 58 °F 25 °F 17%  in 12 mi Calm Calm - -   Scattered Clouds
6:00 PM 59.0 °F 24.8 °F 27% 30.04 in - Calm Calm - N/A   Clear
7:00 PM 57.2 °F 26.6 °F 31% 30.04 in - North - - N/A   Clear
8:00 PM 53.6 °F 24.8 °F 33% 30.06 in - Calm Calm - N/A   Clear
9:00 PM 50.0 °F 24.8 °F 37% 30.06 in - Calm Calm - N/A   Clear
11:00 PM 48.2 °F 24.8 °F 40% 30.09 in - Calm Calm - N/A   Clear